SP5XSL-4 Weather Reports


time (UTC)temp
F
wind
direction
speed
knots
gust
knots
rain 1hr
in
rain 24hr
in
rain mn
in
humidity
%
barometer
mb
20260504090105 72 114 21.7 29.5 0.00 0.00 0.00 1018.4
20260504081258 69 151 25.2 29.5 0.00 0.00 0.00 1018.5
20260504080415 69 123 23.5 29.5 0.00 0.00 0.00 1018.9
20260504060234 62 178 21.7 33.0 0.00 0.00 0.00 1018.7
20260504045125 59 156 11.3 17.4 0.00 0.00 0.00 1018.8
20260504044137 57 100 13.9 13.9 0.00 0.00 0.00 1018.7
20260504043300 57 94 6.1 7.8 0.00 0.00 0.00 1018.9
20260504042448 56 176 9.6 9.6 0.00 0.00 0.00 1018.6
20260504041615 55 93 9.6 9.6 0.00 0.00 0.00 1018.6
20260504040725 55 83 6.1 7.8 0.00 0.00 0.00 1018.8
20260504035752 55 89 7.8 7.8 0.00 0.00 0.00 1018.8
20260504034838 55 145 13.9 21.7 0.00 0.00 0.00 1018.7
20260504033954 55 84 11.3 17.4 0.00 0.00 0.00 1018.7
20260504033035 55 111 11.3 13.9 0.00 0.00 0.00 1018.6
20260504032013 55 96 7.8 9.6 0.00 0.00 0.00 1018.8
20260504031134 55 90 7.8 7.8 0.00 0.00 0.00 1018.7
20260504030308 55 118 13.9 13.9 0.00 0.00 0.00 1018.6
20260504025300 55 105 7.8 9.6 0.00 0.00 0.00 1018.6
20260504024454 55 105 7.8 9.6 0.00 0.00 0.00 1018.8
20260504023542 56 100 7.8 9.6 0.00 0.00 0.00 1018.5
20260504022546 57 142 13.9 17.4 0.00 0.00 0.00 1018.5
20260504021607 57 102 9.6 13.9 0.00 0.00 0.00 1018.7
20260504020633 57 129 15.6 17.4 0.00 0.00 0.00 1018.5
20260504015634 57 125 11.3 13.9 0.00 0.00 0.00 1018.5
20260504014744 57 157 13.9 13.9 0.00 0.00 0.00 1018.8
20260504013732 57 103 11.3 13.9 0.00 0.00 0.00 1018.7
20260504012747 58 92 7.8 9.6 0.00 0.00 0.00 1018.7
20260504011838 59 158 13.9 17.4 0.00 0.00 0.00 1018.9
20260504010952 59 85 7.8 9.6 0.00 0.00 0.00 1018.9
20260504010048 59 113 11.3 13.9 0.00 0.00 0.00 1018.9
20260504005155 60 115 13.9 13.9 0.00 0.00 0.00 1018.7
20260504004245 59 108 13.9 17.4 0.00 0.00 0.00 1018.8
20260504003413 60 111 7.8 9.6 0.00 0.00 0.00 1018.9
20260504002458 60 169 11.3 13.9 0.00 0.00 0.00 1018.9
20260504001654 60 90 7.8 9.6 0.00 0.00 0.00 1018.9
20260504000647 61 126 11.3 13.9 0.00 0.00 0.00 1019.1
20260503235835 60 123 13.9 13.9 0.00 0.00 0.00 1019.0
20260503234955 60 99 11.3 13.9 0.00 0.00 0.00 1018.9
20260503233934 61 160 9.6 13.9 0.00 0.00 0.00 1018.9
20260503232913 61 103 11.3 17.4 0.00 0.00 0.00 1018.9
20260503231928 61 110 7.8 9.6 0.00 0.00 0.00 1019.1
20260503231045 61 131 11.3 13.9 0.00 0.00 0.00 1019.1
20260503230105 61 88 9.6 13.9 0.00 0.00 0.00 1019.3
20260503225157 60 110 9.6 13.9 0.00 0.00 0.00 1019.1
20260503224213 60 144 15.6 17.4 0.00 0.00 0.00 1019.1
20260503223328 61 105 9.6 9.6 0.00 0.00 0.00 1019.1
20260503222513 61 159 9.6 13.9 0.00 0.00 0.00 1019.4
20260503221657 61 86 7.8 9.6 0.00 0.00 0.00 1019.4
20260503220713 62 116 11.3 17.4 0.00 0.00 0.00 1019.2
20260503215835 61 105 9.6 9.6 0.00 0.00 0.00 1019.2
20260503214803 60 87 6.1 7.8 0.00 0.00 0.00 1019.3
20260503213955 60 79 3.5 7.8 0.00 0.00 0.00 1019.3
20260503213048 60 83 3.5 7.8 0.00 0.00 0.00 1019.2
20260503211953 60 82 3.5 3.5 0.00 0.00 0.00 1019.4
20260503210955 60 86 3.5 7.8 0.00 0.00 0.00 1019.3
20260503205928 61 85 6.1 7.8 0.00 0.00 0.00 1019.5
20260503204945 61 87 6.1 7.8 0.00 0.00 0.00 1019.4
20260503204045 61 85 3.5 7.8 0.00 0.00 0.00 1019.3
20260503203215 61 87 6.1 7.8 0.00 0.00 0.00 1019.4
20260503202223 62 79 3.5 3.5 0.00 0.00 0.00 1019.5
20260503201413 64 81 3.5 7.8 0.00 0.00 0.00 1019.5
20260503200445 64 89 7.8 9.6 0.00 0.00 0.00 1019.6
20260503195553 65 89 7.8 9.6 0.00 0.00 0.00 1019.6
20260503194605 65 84 3.5 3.5 0.00 0.00 0.00 1019.5
20260503193748 65 83 3.5 3.5 0.00 0.00 0.00 1019.4
20260503192835 65 82 6.1 7.8 0.00 0.00 0.00 1019.5
20260503192028 66 84 6.1 7.8 0.00 0.00 0.00 1019.4
20260503191115 66 79 6.1 7.8 0.00 0.00 0.00 1019.7
20260503190215 65 81 3.5 3.5 0.00 0.00 0.00 1019.4
20260503185345 65 80 3.5 3.5 0.00 0.00 0.00 1019.5
20260503184530 65 84 6.1 7.8 0.00 0.00 0.00 1019.3
20260503183558 66 81 3.5 7.8 0.00 0.00 0.00 1019.3
20260503182611 67 85 3.5 7.8 0.00 0.00 0.00 1019.2
20260503181612 67 83 3.5 7.8 0.00 0.00 0.00 1019.2
20260503180630 68 81 1.7 3.5 0.00 0.00 0.00 1019.0
20260503175714 69 80 1.7 3.5 0.00 0.00 0.00 1019.1
20260503174818 70 80 1.7 3.5 0.00 0.00 0.00 1019.2
20260503173947 71 79 1.7 3.5 0.00 0.00 0.00 1019.0
20260503173118 71 81 3.5 7.8 0.00 0.00 0.00 1018.9
20260503172153 72 84 7.8 7.8 0.00 0.00 0.00 1019.1
20260503171233 73 90 7.8 7.8 0.00 0.00 0.00 1018.9
20260503170242 74 104 9.6 9.6 0.00 0.00 0.00 1019.0
20260503150420 78 143 25.2 29.5 0.00 0.00 0.00 1019.6
20260503140135 80 165 23.5 29.5 0.00 0.00 0.00 1020.2
20260503130815 78 102 15.6 17.4 0.00 0.00 0.00 1020.5
20260503110217 77 173 23.5 29.5 0.00 0.00 0.00 1021.8